DW6912 Weather Reports


Display with metric or nautical units.
time (UTC)temp
F
wind
direction
speed
MPH
gust
MPH
rain 1hr
in
rain 24hr
in
rain mn
in
humidity
%
barometer
mb
20260505173159 80 135 7.0 8.0 0.00 0.00 0.00 53 1007.0
20260505173059 80 159 1.0 8.0 0.00 0.00 0.00 50 1007.0
20260505172959 80 160 2.0 8.0 0.00 0.00 0.00 48 1007.0
20260505172859 80 140 5.0 9.0 0.00 0.00 0.00 48 1007.0
20260505172758 80 192 2.0 9.0 0.00 0.00 0.00 49 1007.0
20260505172659 80 197 5.0 9.0 0.00 0.00 0.00 49 1007.0
20260505172557 80 202 0.0 9.0 0.00 0.00 0.00 50 1007.0
20260505172358 80 201 1.0 9.0 0.00 0.00 0.00 50 1007.0
20260505172158 80 284 2.0 9.0 0.00 0.00 0.00 50 1006.9
20260505172057 80 284 4.0 9.0 0.00 0.00 0.00 49 1006.9
20260505171858 80 347 4.0 9.0 0.00 0.00 0.00 49 1007.0
20260505171758 80 260 2.0 13.0 0.00 0.00 0.00 49 1007.0
20260505171659 80 273 3.0 13.0 0.00 0.00 0.00 48 1007.0
20260505171558 80 242 1.0 13.0 0.00 0.00 0.00 48 1007.0
20260505171258 80 309 5.0 13.0 0.00 0.00 0.00 49 1007.1
20260505171159 80 282 2.0 13.0 0.00 0.00 0.00 47 1007.1
20260505171058 80 274 8.0 13.0 0.00 0.00 0.00 49 1007.1
20260505170959 80 44 4.0 13.0 0.00 0.00 0.00 50 1007.1
20260505170858 80 261 9.0 13.0 0.00 0.00 0.00 48 1007.1
20260505170757 80 252 4.0 10.0 0.00 0.00 0.00 51 1007.1
20260505170657 80 259 4.0 10.0 0.00 0.00 0.00 48 1007.1
20260505170459 80 261 2.0 10.0 0.00 0.00 0.00 48 1007.2
20260505170358 80 273 3.0 10.0 0.00 0.00 0.00 49 1007.2
20260505170257 80 288 4.0 10.0 0.00 0.00 0.00 50 1007.2
20260505170158 80 236 3.0 10.0 0.00 0.00 0.00 48 1007.2
20260505170059 80 302 4.0 11.0 0.00 0.00 0.00 53 1007.2
20260505165959 80 263 3.0 11.0 0.00 0.00 0.00 49 1007.1
20260505165857 80 248 3.0 11.0 0.00 0.00 0.00 48 1007.2
20260505165759 80 268 6.0 11.0 0.00 0.00 0.00 48 1007.3
20260505165658 80 258 2.0 11.0 0.00 0.00 0.00 51 1007.3
20260505165459 79 242 3.0 11.0 0.00 0.00 0.00 51 1007.3
20260505165259 79 254 3.0 11.0 0.00 0.00 0.00 53 1007.3
20260505165157 79 252 4.0 11.0 0.00 0.00 0.00 53 1007.3
20260505165058 79 265 2.0 11.0 0.00 0.00 0.00 50 1007.3
20260505165000 79 288 5.0 11.0 0.00 0.00 0.00 51 1007.4
20260505164858 79 230 2.0 11.0 0.00 0.00 0.00 52 1007.6
20260505164758 79 222 3.0 11.0 0.00 0.00 0.00 52 1007.4
20260505164659 79 261 3.0 11.0 0.00 0.00 0.00 49 1007.4
20260505164558 79 309 7.0 11.0 0.00 0.00 0.00 52 1007.6
20260505164358 79 247 3.0 11.0 0.00 0.00 0.00 52 1007.6
20260505164257 79 225 2.0 11.0 0.00 0.00 0.00 50 1007.6
20260505164159 78 262 10.0 11.0 0.00 0.00 0.00 50 1007.6
20260505164058 78 254 2.0 9.0 0.00 0.00 0.00 53 1007.7
20260505163959 78 260 6.0 9.0 0.00 0.00 0.00 53 1007.8
20260505163900 78 250 3.0 9.0 0.00 0.00 0.00 53 1007.8
20260505163659 78 257 3.0 13.0 0.00 0.00 0.00 52 1007.8
20260505163558 78 286 6.0 13.0 0.00 0.00 0.00 52 1007.9
20260505163459 78 248 4.0 13.0 0.00 0.00 0.00 50 1008.0
20260505163358 78 269 7.0 13.0 0.00 0.00 0.00 52 1008.0
20260505163258 78 266 3.0 13.0 0.00 0.00 0.00 50 1007.9
20260505163200 78 267 3.0 13.0 0.00 0.00 0.00 51 1007.9
20260505163058 78 253 2.0 13.0 0.00 0.00 0.00 51 1007.9
20260505162959 78 242 4.0 13.0 0.00 0.00 0.00 52 1008.0
20260505162859 78 304 3.0 13.0 0.00 0.00 0.00 50 1007.9
20260505162659 79 261 4.0 9.0 0.00 0.00 0.00 50 1007.9
20260505162559 79 237 4.0 9.0 0.00 0.00 0.00 51 1008.0
20260505162459 79 235 4.0 9.0 0.00 0.00 0.00 53 1007.9
20260505162357 79 205 6.0 9.0 0.00 0.00 0.00 53 1007.9
20260505162258 79 281 6.0 9.0 0.00 0.00 0.00 53 1008.0
20260505162158 78 253 5.0 9.0 0.00 0.00 0.00 51 1008.0
20260505162057 79 243 5.0 9.0 0.00 0.00 0.00 51 1007.9
20260505161958 79 262 3.0 7.0 0.00 0.00 0.00 50 1007.9
20260505161758 79 220 3.0 7.0 0.00 0.00 0.00 52 1008.0
20260505161657 79 312 5.0 7.0 0.00 0.00 0.00 54 1008.0
20260505161558 79 230 6.0 7.0 0.00 0.00 0.00 51 1007.9
20260505161358 79 219 4.0 10.0 0.00 0.00 0.00 52 1007.9
20260505161258 79 266 7.0 10.0 0.00 0.00 0.00 52 1007.9
20260505161159 78 209 3.0 10.0 0.00 0.00 0.00 52 1007.9
20260505161057 78 216 3.0 10.0 0.00 0.00 0.00 52 1007.9
20260505160959 78 214 3.0 10.0 0.00 0.00 0.00 53 1007.9
20260505160859 78 226 4.0 10.0 0.00 0.00 0.00 52 1007.9
20260505160758 78 235 3.0 10.0 0.00 0.00 0.00 54 1007.9
20260505160558 78 268 8.0 10.0 0.00 0.00 0.00 51 1008.0
20260505160500 79 259 6.0 9.0 0.00 0.00 0.00 52 1008.0
20260505160158 78 221 1.0 9.0 0.00 0.00 0.00 53 1008.0
20260505153357 77 189 3.0 6.0 0.00 0.00 0.00 54 1007.8
20260505153258 77 248 3.0 6.0 0.00 0.00 0.00 57 1008.0
20260505153158 77 218 1.0 7.0 0.00 0.00 0.00 57 1008.0
20260505153057 77 214 4.0 8.0 0.00 0.00 0.00 56 1008.0
20260505152959 77 290 3.0 8.0 0.00 0.00 0.00 57 1008.0
20260505152857 77 217 3.0 8.0 0.00 0.00 0.00 55 1008.0
20260505152657 77 207 3.0 8.0 0.00 0.00 0.00 58 1008.1
20260505152558 77 242 4.0 8.0 0.00 0.00 0.00 55 1008.1
20260505152357 77 272 2.0 8.0 0.00 0.00 0.00 56 1008.1
20260505152257 77 263 3.0 8.0 0.00 0.00 0.00 54 1008.1
20260505152057 77 279 4.0 7.0 0.00 0.00 0.00 56 1008.1
20260505151959 77 252 2.0 7.0 0.00 0.00 0.00 57 1008.1
20260505151757 76 200 2.0 7.0 0.00 0.00 0.00 57 1008.1
20260505151659 76 200 3.0 7.0 0.00 0.00 0.00 57 1008.1
20260505151558 76 246 2.0 7.0 0.00 0.00 0.00 57 1008.0
20260505151457 76 296 2.0 8.0 0.00 0.00 0.00 57 1008.1
20260505151356 76 291 2.0 8.0 0.00 0.00 0.00 59 1008.1
20260505151258 76 214 3.0 8.0 0.00 0.00 0.00 59 1008.1
20260505151057 76 240 1.0 5.0 0.00 0.00 0.00 62 1008.1
20260505151000 76 240 2.0 5.0 0.00 0.00 0.00 58 1008.1
20260505150759 76 194 1.0 5.0 0.00 0.00 0.00 60 1008.2
20260505150658 76 187 3.0 5.0 0.00 0.00 0.00 60 1008.2
20260505150458 76 229 2.0 5.0 0.00 0.00 0.00 60 1008.1
20260505150359 75 192 3.0 5.0 0.00 0.00 0.00 62 1008.2
20260505150258 75 198 4.0 5.0 0.00 0.00 0.00 60 1008.1
20260505140558 71 285 3.0 5.0 0.00 0.00 0.00 67 1008.9
20260505140459 71 169 2.0 5.0 0.00 0.00 0.00 67 1008.9
20260505140357 70 215 0.0 5.0 0.00 0.00 0.00 69 1009.0
20260505140258 70 215 2.0 5.0 0.00 0.00 0.00 67 1008.9
20260505140158 70 263 1.0 5.0 0.00 0.00 0.00 66 1008.9
20260505130258 65 140 1.0 4.0 0.00 0.00 0.00 76 1009.6
20260505130200 65 199 0.0 3.0 0.00 0.00 0.00 75 1009.6
20260505124859 64 161 1.0 6.0 0.00 0.00 0.00 74 1009.6
20260505124757 64 161 1.0 6.0 0.00 0.00 0.00 75 1009.6
20260505124657 64 161 2.0 6.0 0.00 0.00 0.00 76 1009.6
20260505124558 64 161 2.0 6.0 0.00 0.00 0.00 76 1009.6
20260505124458 64 161 1.0 6.0 0.00 0.00 0.00 75 1009.5
20260505124357 64 167 6.0 6.0 0.00 0.00 0.00 75 1009.5
20260505124257 64 189 3.0 4.0 0.00 0.00 0.00 75 1009.5
20260505124158 64 196 2.0 4.0 0.00 0.00 0.00 76 1009.5
20260505124058 64 161 4.0 4.0 0.00 0.00 0.00 79 1009.6
20260505123958 64 171 1.0 2.0 0.00 0.00 0.00 79 1009.5
20260505123857 64 171 0.0 2.0 0.00 0.00 0.00 79 1009.5
20260505123759 64 171 1.0 2.0 0.00 0.00 0.00 79 1009.5
20260505123657 63 171 0.0 2.0 0.00 0.00 0.00 78 1009.5
20260505123558 63 171 1.0 2.0 0.00 0.00 0.00 79 1009.5
20260505123500 63 171 1.0 3.0 0.00 0.00 0.00 79 1009.5
20260505123157 62 171 0.0 4.0 0.00 0.00 0.00 81 1009.4
20260505123058 62 171 0.0 4.0 0.00 0.00 0.00 81 1009.4
20260505122959 62 171 1.0 4.0 0.00 0.00 0.00 82 1009.5
20260505122858 62 171 1.0 4.0 0.00 0.00 0.00 81 1009.5
20260505122657 62 171 0.0 4.0 0.00 0.00 0.00 80 1009.5
20260505122557 61 171 4.0 4.0 0.00 0.00 0.00 82 1009.5
20260505122458 61 279 1.0 4.0 0.00 0.00 0.00 82 1009.5
20260505122258 61 177 0.0 4.0 0.00 0.00 0.00 82 1009.4
20260505122157 61 177 1.0 4.0 0.00 0.00 0.00 82 1009.4
20260505122058 61 177 2.0 4.0 0.00 0.00 0.00 82 1009.6
20260505121959 60 177 3.0 4.0 0.00 0.00 0.00 84 1009.6
20260505121857 60 178 1.0 4.0 0.00 0.00 0.00 83 1009.5
20260505121658 59 209 2.0 4.0 0.00 0.00 0.00 85 1009.4
20260505121601 59 209 2.0 4.0 0.00 0.00 0.00 86 1009.4
20260505121357 59 143 3.0 3.0 0.00 0.00 0.00 87 1009.5
20260505121057 58 142 1.0 3.0 0.00 0.00 0.00 87 1009.4
20260505120958 58 142 1.0 3.0 0.00 0.00 0.00 88 1009.4
20260505120857 58 141 0.0 3.0 0.00 0.00 0.00 88 1009.4
20260505120658 58 141 1.0 3.0 0.00 0.00 0.00 88 1009.4
20260505120458 57 140 0.0 2.0 0.00 0.00 0.00 90 1009.4
20260505120357 57 140 0.0 1.0 0.00 0.00 0.00 90 1009.4
20260505120259 57 140 0.0 1.0 0.00 0.00 0.00 90 1009.4
20260505120157 57 140 0.0 1.0 0.00 0.00 0.00 91 1009.4
20260505120057 57 140 0.0 1.0 0.00 0.00 0.00 90 1009.4
20260505115959 56 140 0.0 1.0 0.00 0.00 0.00 91 1009.4
20260505115758 56 140 0.0 1.0 0.00 0.00 0.00 92 1009.4
20260505115657 56 140 0.0 1.0 0.00 0.00 0.00 91 1009.4
20260505115556 56 140 1.0 1.0 0.00 0.00 0.00 91 1009.3
20260505115458 56 140 0.0 0.0 0.00 0.00 0.00 91 1009.3
20260505115359 56 140 0.0 0.0 0.00 0.00 0.00 92 1009.3
20260505115156 56 140 0.0 0.0 0.00 0.00 0.00 92 1009.3
20260505114858 56 140 0.0 0.0 0.00 0.00 0.00 93 1009.3
20260505114757 56 140 0.0 0.0 0.00 0.00 0.00 93 1009.3
20260505114656 56 140 0.0 0.0 0.00 0.00 0.00 93 1009.3
20260505114557 55 140 0.0 1.0 0.00 0.00 0.00 93 1009.3
20260505114459 55 140 0.0 1.0 0.00 0.00 0.00 93 1009.3
20260505114357 55 140 0.0 1.0 0.00 0.00 0.00 93 1009.2
20260505114256 55 140 0.0 1.0 0.00 0.00 0.00 93 1009.2
20260505114157 55 140 0.0 1.0 0.00 0.00 0.00 93 1009.2
20260505113959 55 140 0.0 1.0 0.00 0.00 0.00 93 1009.1
20260505113657 55 140 0.0 1.0 0.00 0.00 0.00 94 1009.1
20260505113557 55 140 0.0 0.0 0.00 0.00 0.00 94 1009.1
20260505113459 55 140 0.0 0.0 0.00 0.00 0.00 94 1009.1
20260505113356 54 140 0.0 0.0 0.00 0.00 0.00 94 1009.0
20260505113258 54 140 0.0 1.0 0.00 0.00 0.00 94 1009.1
20260505113156 54 140 0.0 1.0 0.00 0.00 0.00 94 1009.1
20260505113058 54 140 0.0 1.0 0.00 0.00 0.00 94 1009.0
20260505112856 54 140 0.0 1.0 0.00 0.00 0.00 94 1009.0
20260505112757 54 140 0.0 1.0 0.00 0.00 0.00 94 1009.1
20260505112656 54 140 0.0 1.0 0.00 0.00 0.00 94 1009.1
20260505112556 54 140 0.0 1.0 0.00 0.00 0.00 94 1009.0
20260505112457 54 140 0.0 1.0 0.00 0.00 0.00 94 1009.0
20260505112257 53 140 0.0 1.0 0.00 0.00 0.00 94 1009.0
20260505112156 53 140 0.0 1.0 0.00 0.00 0.00 94 1009.0
20260505112057 53 140 0.0 1.0 0.00 0.00 0.00 94 1009.0
20260505111958 53 140 0.0 1.0 0.00 0.00 0.00 94 1009.0
20260505111857 53 140 0.0 1.0 0.00 0.00 0.00 94 1009.0
20260505111658 52 140 0.0 1.0 0.00 0.00 0.00 94 1008.9
20260505111557 52 140 0.0 1.0 0.00 0.00 0.00 94 1009.0
20260505111458 52 140 0.0 1.0 0.00 0.00 0.00 94 1009.0
20260505111356 52 140 0.0 1.0 0.00 0.00 0.00 94 1009.0
20260505111256 52 140 0.0 1.0 0.00 0.00 0.00 94 1009.0
20260505111157 51 140 0.0 1.0 0.00 0.00 0.00 94 1009.0
20260505110959 51 140 0.0 1.0 0.00 0.00 0.00 94 1009.0
20260505110756 51 140 0.0 2.0 0.00 0.00 0.00 94 1008.9
20260505110700 51 140 0.0 2.0 0.00 0.00 0.00 94 1008.9
20260505110556 51 140 0.0 2.0 0.00 0.00 0.00 94 1008.9
20260505110357 51 140 0.0 3.0 0.00 0.00 0.00 94 1008.9
20260505110257 51 140 0.0 3.0 0.00 0.00 0.00 94 1008.8
20260505110157 51 140 0.0 3.0 0.00 0.00 0.00 94 1008.9
20260505101958 49 140 0.0 2.0 0.00 0.00 0.00 94 1008.7
20260505101858 49 140 0.0 2.0 0.00 0.00 0.00 94 1008.6
20260505101758 49 140 1.0 2.0 0.00 0.00 0.00 94 1008.6
20260505101658 49 140 0.0 2.0 0.00 0.00 0.00 94 1008.6
20260505101556 49 140 0.0 2.0 0.00 0.00 0.00 94 1008.6
20260505101459 49 140 2.0 2.0 0.00 0.00 0.00 94 1008.6
20260505101356 49 140 1.0 1.0 0.00 0.00 0.00 94 1008.6
20260505101258 49 140 1.0 1.0 0.00 0.00 0.00 94 1008.6
20260505101159 49 140 0.0 1.0 0.00 0.00 0.00 94 1008.5
20260505101056 49 140 0.0 3.0 0.00 0.00 0.00 94 1008.5
20260505100958 49 140 0.0 3.0 0.00 0.00 0.00 94 1008.5
20260505100857 49 140 0.0 3.0 0.00 0.00 0.00 94 1008.5
20260505100757 49 140 0.0 3.0 0.00 0.00 0.00 94 1008.5
20260505100557 49 140 0.0 3.0 0.00 0.00 0.00 94 1008.4
20260505100458 49 140 0.0 3.0 0.00 0.00 0.00 94 1008.5
20260505100358 49 140 0.0 3.0 0.00 0.00 0.00 94 1008.5
20260505095958 49 140 0.0 0.0 0.00 0.00 0.00 94 1008.5
20260505095858 49 140 0.0 0.0 0.00 0.00 0.00 94 1008.5
20260505095757 49 140 0.0 0.0 0.00 0.00 0.00 94 1008.4
20260505095559 49 140 0.0 0.0 0.00 0.00 0.00 94 1008.4
20260505095458 49 140 0.0 0.0 0.00 0.00 0.00 94 1008.3
20260505095401 49 140 0.0 0.0 0.00 0.00 0.00 94 1008.4
20260505095259 49 140 0.0 2.0 0.00 0.00 0.00 94 1008.3
20260505095159 49 140 0.0 2.0 0.00 0.00 0.00 94 1008.3
20260505095058 49 140 0.0 2.0 0.00 0.00 0.00 94 1008.3
20260505095000 49 140 0.0 2.0 0.00 0.00 0.00 94 1008.3
20260505094858 49 140 0.0 2.0 0.00 0.00 0.00 94 1008.2
20260505094758 49 140 0.0 2.0 0.00 0.00 0.00 94 1008.2
20260505094659 49 140 0.0 2.0 0.00 0.00 0.00 94 1008.2
20260505094558 49 140 0.0 2.0 0.00 0.00 0.00 94 1008.1
20260505094501 49 140 0.0 2.0 0.00 0.00 0.00 94 1008.1
20260505094258 49 140 1.0 2.0 0.00 0.00 0.00 94 1008.1
20260505094158 49 140 0.0 2.0 0.00 0.00 0.00 94 1008.0
20260505094058 49 140 0.0 2.0 0.00 0.00 0.00 94 1008.0
20260505094001 49 140 0.0 2.0 0.00 0.00 0.00 94 1008.1
20260505093659 49 140 0.0 2.0 0.00 0.00 0.00 94 1008.1
20260505093558 49 140 1.0 2.0 0.00 0.00 0.00 94 1008.1
20260505093500 49 140 1.0 2.0 0.00 0.00 0.00 94 1008.1
20260505093257 49 140 1.0 2.0 0.00 0.00 0.00 94 1008.1
20260505092958 50 140 0.0 2.0 0.00 0.00 0.00 94 1008.1
20260505092857 50 140 1.0 2.0 0.00 0.00 0.00 94 1008.1
20260505092758 50 140 1.0 2.0 0.00 0.00 0.00 94 1008.1
20260505092658 50 140 0.0 0.0 0.00 0.00 0.00 94 1008.0
20260505092358 50 140 0.0 2.0 0.00 0.00 0.00 93 1008.1
20260505092257 50 140 0.0 2.0 0.00 0.00 0.00 94 1008.0
20260505092158 50 140 0.0 2.0 0.00 0.00 0.00 94 1008.1
20260505092000 50 140 0.0 2.0 0.00 0.00 0.00 94 1008.1
20260505091858 50 140 0.0 2.0 0.00 0.00 0.00 94 1008.0
20260505091757 50 140 0.0 2.0 0.00 0.00 0.00 93 1008.0
20260505091657 50 140 0.0 2.0 0.00 0.00 0.00 93 1008.0
20260505091559 50 140 2.0 2.0 0.00 0.00 0.00 93 1008.0
20260505091459 50 140 0.0 2.0 0.00 0.00 0.00 93 1008.0
20260505091357 50 140 0.0 2.0 0.00 0.00 0.00 93 1008.0
20260505091257 50 140 1.0 2.0 0.00 0.00 0.00 93 1008.0
20260505091158 50 140 0.0 2.0 0.00 0.00 0.00 93 1008.0
20260505091058 50 140 1.0 2.0 0.00 0.00 0.00 93 1008.0
20260505090959 50 140 0.0 2.0 0.00 0.00 0.00 93 1008.0
20260505090758 50 140 1.0 2.0 0.00 0.00 0.00 93 1008.0
20260505090657 50 140 1.0 2.0 0.00 0.00 0.00 93 1008.0
20260505090559 50 140 0.0 2.0 0.00 0.00 0.00 93 1008.1
20260505090501 50 140 0.0 2.0 0.00 0.00 0.00 93 1008.1
20260505090357 50 140 1.0 2.0 0.00 0.00 0.00 93 1008.0
20260505090258 50 140 1.0 2.0 0.00 0.00 0.00 93 1008.1
20260505090057 50 140 0.0 2.0 0.00 0.00 0.00 93 1008.1
20260505085757 50 140 0.0 2.0 0.00 0.00 0.00 93 1008.1
20260505085656 50 140 0.0 2.0 0.00 0.00 0.00 93 1008.0
20260505085557 50 140 0.0 2.0 0.00 0.00 0.00 93 1008.1
20260505085357 50 140 0.0 2.0 0.00 0.00 0.00 93 1008.1
20260505085257 50 140 0.0 2.0 0.00 0.00 0.00 93 1008.1
20260505085157 50 140 0.0 2.0 0.00 0.00 0.00 93 1008.0
20260505085056 50 140 1.0 2.0 0.00 0.00 0.00 93 1008.1
20260505084858 50 140 1.0 2.0 0.00 0.00 0.00 93 1008.1
20260505084757 50 140 0.0 2.0 0.00 0.00 0.00 93 1008.1
20260505084556 50 140 0.0 2.0 0.00 0.00 0.00 93 1008.1
20260505084459 50 140 0.0 2.0 0.00 0.00 0.00 93 1008.1
20260505084357 50 140 0.0 2.0 0.00 0.00 0.00 93 1008.1
20260505084258 50 140 1.0 2.0 0.00 0.00 0.00 93 1008.1
20260505084157 50 140 0.0 2.0 0.00 0.00 0.00 93 1008.1
20260505084056 51 140 1.0 2.0 0.00 0.00 0.00 93 1008.0
20260505083958 51 140 0.0 2.0 0.00 0.00 0.00 92 1008.0
20260505083858 51 140 0.0 2.0 0.00 0.00 0.00 92 1008.0
20260505083558 51 140 0.0 2.0 0.00 0.00 0.00 93 1008.1
20260505083458 51 140 0.0 2.0 0.00 0.00 0.00 93 1008.0
20260505083358 51 140 1.0 2.0 0.00 0.00 0.00 93 1008.1
20260505083257 51 140 0.0 2.0 0.00 0.00 0.00 93 1008.1
20260505083157 51 140 0.0 2.0 0.00 0.00 0.00 93 1008.1
20260505083057 51 140 0.0 2.0 0.00 0.00 0.00 93 1008.0
20260505082959 51 140 0.0 2.0 0.00 0.00 0.00 92 1008.1
20260505082857 51 140 1.0 2.0 0.00 0.00 0.00 92 1008.0
20260505082757 51 140 1.0 2.0 0.00 0.00 0.00 92 1008.1
20260505082657 51 140 1.0 2.0 0.00 0.00 0.00 92 1008.0
20260505082459 51 140 0.0 2.0 0.00 0.00 0.00 92 1008.1
20260505082357 51 140 1.0 2.0 0.00 0.00 0.00 92 1008.1
20260505082257 51 140 0.0 2.0 0.00 0.00 0.00 92 1008.1
20260505082157 51 140 0.0 2.0 0.00 0.00 0.00 92 1008.1
20260505082056 51 140 0.0 2.0 0.00 0.00 0.00 92 1008.0
20260505081858 51 140 1.0 2.0 0.00 0.00 0.00 92 1008.1
20260505081758 51 140 1.0 2.0 0.00 0.00 0.00 92 1008.1
20260505081656 51 140 0.0 2.0 0.00 0.00 0.00 92 1008.0
20260505081557 51 140 0.0 2.0 0.00 0.00 0.00 92 1008.0
20260505081457 51 140 0.0 2.0 0.00 0.00 0.00 92 1008.0
20260505081357 51 140 1.0 2.0 0.00 0.00 0.00 92 1008.0
20260505081257 51 140 0.0 2.0 0.00 0.00 0.00 92 1008.0
20260505081158 51 140 0.0 2.0 0.00 0.00 0.00 91 1007.9
20260505080958 51 140 0.0 3.0 0.00 0.00 0.00 91 1007.9
20260505080858 51 140 0.0 3.0 0.00 0.00 0.00 91 1007.9
20260505080757 51 140 0.0 3.0 0.00 0.00 0.00 91 1007.9
20260505080657 51 140 2.0 3.0 0.00 0.00 0.00 91 1007.9
20260505080557 52 140 0.0 3.0 0.00 0.00 0.00 91 1007.9
20260505080459 52 140 0.0 3.0 0.00 0.00 0.00 91 1007.9
20260505080357 52 140 0.0 3.0 0.00 0.00 0.00 91 1007.8
20260505080157 52 140 0.0 3.0 0.00 0.00 0.00 91 1007.9
20260505080058 52 140 2.0 3.0 0.00 0.00 0.00 91 1007.8
20260505080001 52 140 0.0 2.0 0.00 0.00 0.00 91 1007.8
20260505075857 52 140 0.0 2.0 0.00 0.00 0.00 91 1007.9
20260505075656 52 140 1.0 3.0 0.00 0.00 0.00 91 1007.9
20260505075557 52 140 1.0 3.0 0.00 0.00 0.00 91 1007.8
20260505075458 52 140 0.0 3.0 0.00 0.00 0.00 91 1007.8
20260505075358 52 140 0.0 3.0 0.00 0.00 0.00 91 1007.8
20260505075258 52 140 2.0 3.0 0.00 0.00 0.00 91 1007.8
20260505075158 52 140 2.0 3.0 0.00 0.00 0.00 91 1007.8
20260505075058 52 140 1.0 3.0 0.00 0.00 0.00 91 1007.8
20260505074857 52 140 1.0 3.0 0.00 0.00 0.00 91 1007.7
20260505074757 52 140 0.0 3.0 0.00 0.00 0.00 91 1007.7
20260505074657 52 140 0.0 0.0 0.00 0.00 0.00 91 1007.8
20260505074556 52 140 0.0 0.0 0.00 0.00 0.00 91 1007.8
20260505074357 52 140 0.0 0.0 0.00 0.00 0.00 91 1007.8
20260505074257 52 140 0.0 0.0 0.00 0.00 0.00 91 1007.8
20260505074157 52 140 0.0 0.0 0.00 0.00 0.00 91 1007.8
20260505074057 53 140 0.0 0.0 0.00 0.00 0.00 91 1007.8
20260505073957 53 141 0.0 0.0 0.00 0.00 0.00 91 1007.8
20260505073857 53 141 0.0 0.0 0.00 0.00 0.00 91 1007.6
20260505073757 53 141 0.0 0.0 0.00 0.00 0.00 91 1007.6
20260505073656 53 141 0.0 0.0 0.00 0.00 0.00 91 1007.7
20260505073556 53 141 0.0 0.0 0.00 0.00 0.00 91 1007.7
20260505073357 53 141 0.0 0.0 0.00 0.00 0.00 91 1007.6
20260505073257 53 141 0.0 0.0 0.00 0.00 0.00 91 1007.6
20260505073158 53 141 0.0 0.0 0.00 0.00 0.00 90 1007.6
20260505073059 53 141 0.0 0.0 0.00 0.00 0.00 90 1007.7
20260505072959 53 141 0.0 0.0 0.00 0.00 0.00 90 1007.7
20260505072857 53 141 0.0 0.0 0.00 0.00 0.00 90 1007.5
20260505072757 53 141 0.0 0.0 0.00 0.00 0.00 90 1007.5
20260505072657 53 141 0.0 0.0 0.00 0.00 0.00 90 1007.6
20260505072556 53 141 0.0 0.0 0.00 0.00 0.00 90 1007.6
20260505072458 53 141 0.0 0.0 0.00 0.00 0.00 90 1007.6
20260505072357 53 141 0.0 0.0 0.00 0.00 0.00 90 1007.6
20260505072156 53 141 0.0 0.0 0.00 0.00 0.00 90 1007.6
20260505072057 53 141 0.0 0.0 0.00 0.00 0.00 90 1007.6
20260505072000 53 141 0.0 0.0 0.00 0.00 0.00 90 1007.6
20260505071857 53 141 0.0 0.0 0.00 0.00 0.00 90 1007.6
20260505071657 53 141 0.0 0.0 0.00 0.00 0.00 90 1007.6
20260505071559 53 141 0.0 0.0 0.00 0.00 0.00 90 1007.6
20260505071458 54 141 0.0 0.0 0.00 0.00 0.00 90 1007.5
20260505071357 54 141 0.0 0.0 0.00 0.00 0.00 90 1007.5
20260505071057 54 141 0.0 0.0 0.00 0.00 0.00 89 1007.6
20260505070856 54 141 0.0 0.0 0.00 0.00 0.00 89 1007.6
20260505070757 54 141 0.0 0.0 0.00 0.00 0.00 89 1007.6
20260505070657 54 141 0.0 0.0 0.00 0.00 0.00 89 1007.6
20260505070458 54 141 0.0 0.0 0.00 0.00 0.00 89 1007.6
20260505070357 54 141 0.0 0.0 0.00 0.00 0.00 89 1007.6
20260505070258 54 141 0.0 0.0 0.00 0.00 0.00 89 1007.6
20260505070157 54 141 0.0 0.0 0.00 0.00 0.00 89 1007.6
20260505070058 54 141 0.0 0.0 0.00 0.00 0.00 89 1007.6
20260505065957 54 141 0.0 0.0 0.00 0.00 0.00 89 1007.6
20260505065858 54 141 0.0 0.0 0.00 0.00 0.00 89 1007.6
20260505065757 54 141 0.0 0.0 0.00 0.00 0.00 88 1007.6
20260505065658 54 141 0.0 0.0 0.00 0.00 0.00 88 1007.6
20260505065558 55 141 0.0 0.0 0.00 0.00 0.00 88 1007.6
20260505065459 55 141 0.0 0.0 0.00 0.00 0.00 88 1007.6
20260505065359 55 141 0.0 0.0 0.00 0.00 0.00 88 1007.6
20260505065258 55 141 0.0 0.0 0.00 0.00 0.00 88 1007.6
20260505065158 55 141 0.0 0.0 0.00 0.00 0.00 88 1007.6
20260505064959 55 141 0.0 0.0 0.00 0.00 0.00 88 1007.6
20260505064759 55 141 0.0 0.0 0.00 0.00 0.00 88 1007.5
20260505064657 55 141 0.0 0.0 0.00 0.00 0.00 88 1007.5
20260505064559 55 141 0.0 0.0 0.00 0.00 0.00 88 1007.5
20260505064500 55 140 0.0 0.0 0.00 0.00 0.00 87 1007.5
20260505064359 55 141 0.0 0.0 0.00 0.00 0.00 87 1007.6
20260505064258 55 141 0.0 0.0 0.00 0.00 0.00 87 1007.6
20260505064158 55 141 0.0 0.0 0.00 0.00 0.00 87 1007.6
20260505064058 55 141 0.0 0.0 0.00 0.00 0.00 88 1007.6
20260505064001 55 141 0.0 0.0 0.00 0.00 0.00 87 1007.6
20260505063859 55 141 0.0 0.0 0.00 0.00 0.00 87 1007.7
20260505063759 55 141 0.0 0.0 0.00 0.00 0.00 87 1007.7
20260505063659 55 141 0.0 0.0 0.00 0.00 0.00 87 1007.6
20260505063558 55 141 0.0 0.0 0.00 0.00 0.00 87 1007.6
20260505063258 55 141 0.0 0.0 0.00 0.00 0.00 87 1007.7
20260505063158 55 141 0.0 0.0 0.00 0.00 0.00 87 1007.7
20260505063058 55 141 0.0 0.0 0.00 0.00 0.00 87 1007.7
20260505063000 55 141 0.0 0.0 0.00 0.00 0.00 87 1007.7
20260505062858 55 141 0.0 0.0 0.00 0.00 0.00 87 1007.7
20260505062759 55 141 0.0 0.0 0.00 0.00 0.00 87 1007.8
20260505062700 55 141 0.0 0.0 0.00 0.00 0.00 87 1007.9
20260505062459 55 141 0.0 0.0 0.00 0.00 0.00 87 1007.9
20260505062357 55 141 0.0 0.0 0.00 0.00 0.00 86 1007.8
20260505062158 55 141 0.0 0.0 0.00 0.00 0.00 86 1007.7
20260505062100 56 141 0.0 0.0 0.00 0.00 0.00 86 1007.8
20260505061959 56 141 0.0 0.0 0.00 0.00 0.00 86 1007.7
20260505061858 56 141 0.0 0.0 0.00 0.00 0.00 86 1007.8
20260505061759 56 141 0.0 0.0 0.00 0.00 0.00 86 1007.8
20260505061358 56 141 0.0 0.0 0.00 0.00 0.00 86 1007.8
20260505061258 56 141 0.0 0.0 0.00 0.00 0.00 86 1007.8
20260505061058 56 141 0.0 0.0 0.00 0.00 0.00 85 1007.9
20260505060959 56 141 0.0 0.0 0.00 0.00 0.00 85 1007.9
20260505060858 56 141 0.0 0.0 0.00 0.00 0.00 85 1008.0
20260505060759 56 141 0.0 0.0 0.00 0.00 0.00 85 1007.9
20260505060658 56 141 0.0 0.0 0.00 0.00 0.00 85 1007.9
20260505060559 56 141 0.0 0.0 0.00 0.00 0.00 85 1007.9
20260505060459 56 141 0.0 0.0 0.00 0.00 0.00 85 1007.9
20260505060358 56 141 0.0 0.0 0.00 0.00 0.00 85 1007.9
20260505060258 56 141 0.0 0.0 0.00 0.00 0.00 85 1007.7
20260505060157 56 141 0.0 0.0 0.00 0.00 0.00 85 1007.8
20260505060059 56 141 0.0 0.0 0.00 0.00 0.00 85 1007.8
20260505055958 56 141 0.0 0.0 0.00 0.00 0.00 85 1007.8
20260505055859 56 141 0.0 0.0 0.00 0.00 0.00 85 1007.9
20260505055756 56 141 0.0 0.0 0.00 0.00 0.00 85 1007.8
20260505055657 56 141 0.0 0.0 0.00 0.00 0.00 85 1007.7
20260505055556 56 141 0.0 0.0 0.00 0.00 0.00 85 1007.8
20260505055458 56 141 0.0 0.0 0.00 0.00 0.00 85 1007.8
20260505055356 56 141 0.0 0.0 0.00 0.00 0.00 85 1007.9
20260505055256 56 141 0.0 0.0 0.00 0.00 0.00 85 1007.9
20260505055157 56 141 0.0 0.0 0.00 0.00 0.00 85 1007.7
20260505055057 56 141 0.0 0.0 0.00 0.00 0.00 85 1007.9
20260505054959 56 141 0.0 0.0 0.00 0.00 0.00 84 1007.9
20260505054857 56 141 0.0 0.0 0.00 0.00 0.00 84 1007.7
20260505054757 56 141 0.0 0.0 0.00 0.00 0.00 85 1007.9
20260505054658 56 141 0.0 0.0 0.00 0.00 0.00 85 1007.8
20260505054356 56 141 0.0 0.0 0.00 0.00 0.00 85 1007.8
20260505054157 56 141 0.0 0.0 0.00 0.00 0.00 85 1007.8
20260505054056 56 141 0.0 0.0 0.00 0.00 0.00 84 1007.8
20260505053958 56 141 0.0 0.0 0.00 0.00 0.00 84 1007.8
20260505053856 56 141 0.0 0.0 0.00 0.00 0.00 84 1007.8
20260505053757 56 141 0.0 0.0 0.00 0.00 0.00 84 1007.8
20260505053657 56 141 0.0 0.0 0.00 0.00 0.00 84 1007.8
20260505053556 56 141 0.0 0.0 0.00 0.00 0.00 84 1007.9
20260505053458 56 141 0.0 0.0 0.00 0.00 0.00 83 1007.9
20260505053358 56 141 0.0 0.0 0.00 0.00 0.00 83 1007.9
20260505053156 56 141 0.0 0.0 0.00 0.00 0.00 83 1007.8
20260505053056 56 141 0.0 0.0 0.00 0.00 0.00 83 1007.8
20260505052958 56 141 0.0 0.0 0.00 0.00 0.00 83 1007.9
20260505052856 56 141 0.0 0.0 0.00 0.00 0.00 84 1007.9
20260505052758 56 141 0.0 0.0 0.00 0.00 0.00 84 1007.9
20260505052658 56 141 0.0 0.0 0.00 0.00 0.00 84 1007.9
20260505052557 56 141 0.0 0.0 0.00 0.00 0.00 83 1007.8
20260505052458 56 141 0.0 0.0 0.00 0.00 0.00 83 1007.8
20260505052256 56 141 0.0 0.0 0.00 0.00 0.00 83 1007.9
20260505052157 56 141 0.0 0.0 0.00 0.00 0.00 83 1007.9
20260505052057 56 141 0.0 0.0 0.00 0.00 0.00 83 1007.9
20260505051958 56 141 0.0 0.0 0.00 0.00 0.00 83 1007.8
20260505051857 56 141 0.0 0.0 0.00 0.00 0.00 83 1007.8
20260505051657 56 141 0.0 1.0 0.00 0.00 0.00 83 1007.7
20260505051558 56 141 0.0 1.0 0.00 0.00 0.00 83 1007.7
20260505051500 56 141 0.0 1.0 0.00 0.00 0.00 83 1007.7
20260505051356 56 141 0.0 1.0 0.00 0.00 0.00 83 1007.7
20260505051157 56 141 0.0 1.0 0.00 0.00 0.00 83 1007.8
20260505051055 56 141 0.0 1.0 0.00 0.00 0.00 83 1007.8
20260505051000 56 141 0.0 1.0 0.00 0.00 0.00 83 1007.8
20260505050856 56 141 0.0 1.0 0.00 0.00 0.00 83 1007.8
20260505050757 56 141 0.0 1.0 0.00 0.00 0.00 83 1007.8
20260505050657 56 141 0.0 1.0 0.00 0.00 0.00 83 1007.8
20260505050557 56 141 0.0 1.0 0.00 0.00 0.00 83 1007.8
20260505050458 56 141 0.0 1.0 0.00 0.00 0.00 83 1007.9
20260505050357 56 141 0.0 1.0 0.00 0.00 0.00 83 1007.8
20260505050257 56 141 0.0 0.0 0.00 0.00 0.00 83 1007.8
20260505050157 56 141 0.0 0.0 0.00 0.00 0.00 83 1007.8
20260505041758 56 141 0.0 2.0 0.00 0.00 0.00 81 1007.6
20260505041658 56 141 0.0 2.0 0.00 0.00 0.00 81 1007.6
20260505041556 56 141 0.0 2.0 0.00 0.00 0.00 81 1007.6
20260505041356 56 141 1.0 2.0 0.00 0.00 0.00 81 1007.6
20260505041258 56 141 0.0 1.0 0.00 0.00 0.00 81 1007.6
20260505041057 56 141 0.0 2.0 0.00 0.00 0.00 81 1007.6
20260505040959 56 141 0.0 2.0 0.00 0.00 0.00 81 1007.5
20260505040857 56 141 0.0 2.0 0.00 0.00 0.00 81 1007.5
20260505040757 56 141 0.0 2.0 0.00 0.00 0.00 81 1007.5
20260505040657 56 141 0.0 2.0 0.00 0.00 0.00 81 1007.5
20260505040458 56 141 0.0 2.0 0.00 0.00 0.00 80 1007.5
20260505040357 56 141 0.0 2.0 0.00 0.00 0.00 80 1007.5
20260505040200 56 141 0.0 2.0 0.00 0.00 0.00 80 1007.5
20260505040101 56 141 0.0 1.0 0.00 0.00 0.00 80 1007.5
20260505035859 56 141 0.0 2.0 0.00 0.00 0.00 80 1007.6
20260505035759 56 141 0.0 2.0 0.00 0.00 0.00 80 1007.6
20260505035700 56 141 0.0 2.0 0.00 0.00 0.00 80 1007.6
20260505035600 56 141 0.0 2.0 0.00 0.00 0.00 80 1007.6
20260505035503 56 141 0.0 2.0 0.00 0.00 0.00 80 1007.6
20260505035200 56 141 0.0 2.0 0.00 0.00 0.00 80 1007.6
20260505035059 56 141 0.0 2.0 0.00 0.00 0.00 80 1007.6
20260505035003 56 141 0.0 1.0 0.00 0.00 0.00 80 1007.6
20260505034901 56 141 0.0 1.0 0.00 0.00 0.00 79 1007.7
20260505034659 56 141 0.0 2.0 0.00 0.00 0.00 80 1007.6
20260505034600 56 141 0.0 2.0 0.00 0.00 0.00 80 1007.6
20260505034500 56 141 0.0 2.0 0.00 0.00 0.00 80 1007.6
20260505034359 56 141 0.0 2.0 0.00 0.00 0.00 79 1007.6
20260505034200 56 141 0.0 2.0 0.00 0.00 0.00 79 1007.6
20260505034059 56 141 1.0 2.0 0.00 0.00 0.00 79 1007.6
20260505034004 56 141 0.0 2.0 0.00 0.00 0.00 79 1007.6
20260505033900 56 141 0.0 2.0 0.00 0.00 0.00 79 1007.6
20260505033800 56 141 0.0 2.0 0.00 0.00 0.00 79 1007.6
20260505033700 56 141 1.0 2.0 0.00 0.00 0.00 79 1007.6
20260505033559 56 141 0.0 2.0 0.00 0.00 0.00 79 1007.6
20260505033501 56 141 0.0 2.0 0.00 0.00 0.00 79 1007.5
20260505033359 56 141 1.0 2.0 0.00 0.00 0.00 79 1007.5
20260505033300 56 141 1.0 1.0 0.00 0.00 0.00 79 1007.4
20260505033059 56 141 0.0 0.0 0.00 0.00 0.00 79 1007.4
20260505032900 56 141 0.0 0.0 0.00 0.00 0.00 79 1007.4
20260505032759 56 141 0.0 0.0 0.00 0.00 0.00 79 1007.5
20260505032559 56 141 0.0 1.0 0.00 0.00 0.00 78 1007.5
20260505032503 56 141 0.0 1.0 0.00 0.00 0.00 78 1007.5
20260505032400 56 141 0.0 1.0 0.00 0.00 0.00 78 1007.6
20260505032300 56 141 0.0 1.0 0.00 0.00 0.00 78 1007.6
20260505032159 56 141 0.0 1.0 0.00 0.00 0.00 78 1007.6
20260505032058 56 141 0.0 2.0 0.00 0.00 0.00 78 1007.6
20260505032004 57 141 0.0 2.0 0.00 0.00 0.00 77 1007.6
20260505031700 57 141 0.0 2.0 0.00 0.00 0.00 77 1007.6
20260505031558 57 141 0.0 2.0 0.00 0.00 0.00 77 1007.6
20260505031503 57 141 0.0 2.0 0.00 0.00 0.00 77 1007.6
20260505031300 57 141 0.0 2.0 0.00 0.00 0.00 77 1007.6
20260505031159 57 141 1.0 2.0 0.00 0.00 0.00 77 1007.6
20260505031059 57 141 0.0 2.0 0.00 0.00 0.00 77 1007.5
20260505031000 57 141 0.0 2.0 0.00 0.00 0.00 78 1007.6
20260505030759 57 141 0.0 2.0 0.00 0.00 0.00 78 1007.5
20260505030659 57 141 0.0 2.0 0.00 0.00 0.00 78 1007.5
20260505030600 57 141 1.0 2.0 0.00 0.00 0.00 78 1007.5
20260505030501 57 141 0.0 2.0 0.00 0.00 0.00 78 1007.6
20260505030359 57 141 0.0 2.0 0.00 0.00 0.00 78 1007.6
20260505030300 57 141 2.0 2.0 0.00 0.00 0.00 77 1007.6
20260505030159 57 141 0.0 2.0 0.00 0.00 0.00 77 1007.6
20260505025959 57 141 1.0 3.0 0.00 0.00 0.00 77 1007.6
20260505025859 57 141 0.0 3.0 0.00 0.00 0.00 77 1007.6
20260505025758 57 141 0.0 3.0 0.00 0.00 0.00 77 1007.7
20260505025559 57 141 1.0 4.0 0.00 0.00 0.00 77 1007.6
20260505025459 58 141 1.0 4.0 0.00 0.00 0.00 76 1007.6
20260505025258 58 141 0.0 4.0 0.00 0.00 0.00 76 1007.6
20260505025158 58 141 0.0 4.0 0.00 0.00 0.00 76 1007.6
20260505025058 58 141 2.0 4.0 0.00 0.00 0.00 76 1007.6
20260505024959 58 142 0.0 4.0 0.00 0.00 0.00 76 1007.6
20260505024858 58 142 0.0 4.0 0.00 0.00 0.00 76 1007.6
20260505024759 58 142 1.0 4.0 0.00 0.00 0.00 76 1007.6
20260505024657 58 142 2.0 4.0 0.00 0.00 0.00 75 1007.5
20260505024558 58 109 1.0 2.0 0.00 0.00 0.00 75 1007.6
20260505024500 58 109 0.0 2.0 0.00 0.00 0.00 76 1007.6
20260505024358 58 109 0.0 2.0 0.00 0.00 0.00 76 1007.5
20260505024258 58 109 0.0 2.0 0.00 0.00 0.00 76 1007.5
20260505024158 58 109 0.0 2.0 0.00 0.00 0.00 76 1007.5
20260505024058 57 109 1.0 2.0 0.00 0.00 0.00 76 1007.4
20260505023858 57 109 2.0 2.0 0.00 0.00 0.00 76 1007.4
20260505023758 57 109 0.0 2.0 0.00 0.00 0.00 76 1007.4
20260505023659 57 109 0.0 0.0 0.00 0.00 0.00 77 1007.4
20260505023558 57 109 0.0 0.0 0.00 0.00 0.00 77 1007.4
20260505023500 57 109 0.0 0.0 0.00 0.00 0.00 77 1007.3
20260505023358 57 109 0.0 0.0 0.00 0.00 0.00 77 1007.3
20260505023158 57 109 0.0 2.0 0.00 0.00 0.00 77 1007.3
20260505023059 57 109 0.0 2.0 0.00 0.00 0.00 77 1007.3
20260505022857 57 109 0.0 3.0 0.00 0.00 0.00 77 1007.4
20260505022758 57 109 0.0 3.0 0.00 0.00 0.00 77 1007.3
20260505022558 57 109 0.0 3.0 0.00 0.00 0.00 77 1007.4
20260505022500 57 109 0.0 3.0 0.00 0.00 0.00 77 1007.3
20260505022359 57 109 0.0 3.0 0.00 0.00 0.00 76 1007.3
20260505022258 57 109 2.0 3.0 0.00 0.00 0.00 77 1007.3
20260505022158 58 109 0.0 3.0 0.00 0.00 0.00 76 1007.3
20260505022058 58 109 0.0 3.0 0.00 0.00 0.00 76 1007.2
20260505022000 58 109 2.0 3.0 0.00 0.00 0.00 76 1007.3
20260505021758 58 109 0.0 3.0 0.00 0.00 0.00 76 1007.3
20260505021557 58 109 1.0 3.0 0.00 0.00 0.00 75 1007.3
20260505021459 58 109 0.0 3.0 0.00 0.00 0.00 75 1007.3
20260505021259 58 109 0.0 3.0 0.00 0.00 0.00 75 1007.3
20260505021158 58 109 0.0 2.0 0.00 0.00 0.00 75 1007.3
20260505021059 58 109 0.0 2.0 0.00 0.00 0.00 75 1007.4
20260505020857 58 109 0.0 2.0 0.00 0.00 0.00 75 1007.4
20260505020758 58 109 0.0 2.0 0.00 0.00 0.00 75 1007.4
20260505020658 58 109 0.0 2.0 0.00 0.00 0.00 75 1007.3
20260505020459 58 109 0.0 3.0 0.00 0.00 0.00 75 1007.3
20260505020358 58 109 2.0 3.0 0.00 0.00 0.00 75 1007.3
20260505020159 58 109 0.0 3.0 0.00 0.00 0.00 75 1007.3
20260505020059 58 109 0.0 3.0 0.00 0.00 0.00 75 1007.3
20260505020000 58 109 0.0 3.0 0.00 0.00 0.00 75 1007.3
20260505015859 58 109 0.0 3.0 0.00 0.00 0.00 75 1007.3
20260505015759 58 109 0.0 3.0 0.00 0.00 0.00 75 1007.3
20260505015658 58 109 1.0 3.0 0.00 0.00 0.00 75 1007.3
20260505015559 58 109 2.0 2.0 0.00 0.00 0.00 75 1007.4
20260505015500 59 109 0.0 2.0 0.00 0.00 0.00 75 1007.4
20260505015359 59 109 0.0 2.0 0.00 0.00 0.00 74 1007.4
20260505015259 59 109 0.0 2.0 0.00 0.00 0.00 74 1007.3
20260505015158 59 109 0.0 2.0 0.00 0.00 0.00 74 1007.3
20260505015100 59 109 0.0 2.0 0.00 0.00 0.00 74 1007.3
20260505015001 59 109 0.0 2.0 0.00 0.00 0.00 74 1007.3
20260505014858 59 109 0.0 2.0 0.00 0.00 0.00 73 1007.4
20260505014601 59 109 0.0 3.0 0.00 0.00 0.00 73 1007.3
20260505014501 59 109 0.0 3.0 0.00 0.00 0.00 73 1007.4
20260505014359 59 109 0.0 3.0 0.00 0.00 0.00 73 1007.4
20260505014258 59 109 0.0 3.0 0.00 0.00 0.00 73 1007.4
20260505014200 59 109 0.0 3.0 0.00 0.00 0.00 73 1007.3
20260505014058 59 109 0.0 3.0 0.00 0.00 0.00 73 1007.3
20260505014000 59 109 0.0 3.0 0.00 0.00 0.00 73 1007.3
20260505013900 59 109 1.0 3.0 0.00 0.00 0.00 72 1007.3
20260505013800 59 109 0.0 2.0 0.00 0.00 0.00 72 1007.3
20260505013659 59 109 0.0 2.0 0.00 0.00 0.00 72 1007.3
20260505013600 59 109 0.0 2.0 0.00 0.00 0.00 72 1007.3
20260505013504 59 109 1.0 2.0 0.00 0.00 0.00 72 1007.2
20260505013258 59 109 0.0 2.0 0.00 0.00 0.00 72 1007.2
20260505013058 60 109 0.0 2.0 0.00 0.00 0.00 72 1007.1
20260505013000 60 109 0.0 2.0 0.00 0.00 0.00 71 1007.2
20260505012858 60 109 1.0 2.0 0.00 0.00 0.00 71 1007.1
20260505012759 60 109 0.0 2.0 0.00 0.00 0.00 71 1007.2
20260505012700 60 109 1.0 2.0 0.00 0.00 0.00 71 1007.2
20260505012559 60 109 0.0 2.0 0.00 0.00 0.00 71 1007.2
20260505012504 60 109 0.0 2.0 0.00 0.00 0.00 71 1007.2
20260505012359 60 109 0.0 2.0 0.00 0.00 0.00 70 1007.2
20260505012259 61 109 1.0 2.0 0.00 0.00 0.00 70 1007.3
20260505012158 61 109 0.0 2.0 0.00 0.00 0.00 70 1007.3
20260505012100 61 109 0.0 2.0 0.00 0.00 0.00 70 1007.3
20260505012002 61 109 0.0 2.0 0.00 0.00 0.00 69 1007.3
20260505011859 61 109 0.0 2.0 0.00 0.00 0.00 69 1007.3
20260505011800 61 109 0.0 2.0 0.00 0.00 0.00 69 1007.3
20260505011700 61 109 0.0 2.0 0.00 0.00 0.00 69 1007.3
20260505011559 61 109 0.0 2.0 0.00 0.00 0.00 69 1007.3
20260505011503 61 109 1.0 2.0 0.00 0.00 0.00 68 1007.2
20260505011400 61 109 1.0 2.0 0.00 0.00 0.00 68 1007.3
20260505011259 61 109 1.0 2.0 0.00 0.00 0.00 68 1007.2
20260505011158 62 109 2.0 2.0 0.00 0.00 0.00 68 1007.2
20260505011100 62 109 1.0 2.0 0.00 0.00 0.00 68 1007.2
20260505011002 62 109 0.0 2.0 0.00 0.00 0.00 68 1007.2
20260505010859 62 109 1.0 2.0 0.00 0.00 0.00 68 1007.2
20260505010801 62 109 2.0 2.0 0.00 0.00 0.00 67 1007.2
20260505010659 62 109 1.0 2.0 0.00 0.00 0.00 67 1007.2
20260505010600 62 109 1.0 2.0 0.00 0.00 0.00 66 1007.1
20260505010502 62 109 0.0 2.0 0.00 0.00 0.00 66 1007.1
20260505010400 62 109 0.0 2.0 0.00 0.00 0.00 66 1007.1
20260505010301 62 109 0.0 3.0 0.00 0.00 0.00 66 1007.1
20260505010200 63 109 1.0 3.0 0.00 0.00 0.00 66 1007.1
20260505010100 63 109 0.0 3.0 0.00 0.00 0.00 66 1007.0
20260505005858 63 109 2.0 3.0 0.00 0.00 0.00 65 1007.0
20260505005758 63 109 1.0 3.0 0.00 0.00 0.00 64 1007.0
20260505005558 63 109 1.0 3.0 0.00 0.00 0.00 64 1006.9
20260505005501 63 109 1.0 3.0 0.00 0.00 0.00 64 1006.9
20260505005259 64 109 1.0 3.0 0.00 0.00 0.00 63 1006.9
20260505005159 64 109 1.0 3.0 0.00 0.00 0.00 63 1006.9
20260505005059 64 109 1.0 3.0 0.00 0.00 0.00 63 1006.9
20260505004858 64 109 0.0 2.0 0.00 0.00 0.00 63 1006.9
20260505004758 64 109 1.0 2.0 0.00 0.00 0.00 63 1006.9
20260505004658 64 109 0.0 2.0 0.00 0.00 0.00 62 1006.8
20260505004558 64 109 0.0 2.0 0.00 0.00 0.00 62 1006.8
20260505004500 65 109 0.0 2.0 0.00 0.00 0.00 62 1006.8
20260505004258 65 109 1.0 2.0 0.00 0.00 0.00 61 1006.7
20260505004159 65 109 1.0 2.0 0.00 0.00 0.00 61 1006.8
20260505003858 65 109 1.0 2.0 0.00 0.00 0.00 60 1006.7
20260505003758 66 109 1.0 2.0 0.00 0.00 0.00 60 1006.7
20260505003701 66 109 1.0 2.0 0.00 0.00 0.00 60 1006.7
20260505003500 66 109 0.0 3.0 0.00 0.00 0.00 60 1006.6
20260505003359 66 109 0.0 3.0 0.00 0.00 0.00 59 1006.7
20260505003158 67 109 1.0 3.0 0.00 0.00 0.00 59 1006.7
20260505003058 67 109 0.0 3.0 0.00 0.00 0.00 58 1006.7
20260505003000 67 109 1.0 3.0 0.00 0.00 0.00 57 1006.7
20260505002859 67 109 1.0 3.0 0.00 0.00 0.00 57 1006.7
20260505002757 67 109 0.0 3.0 0.00 0.00 0.00 57 1006.7
20260505002659 67 109 0.0 3.0 0.00 0.00 0.00 57 1006.7
20260505002557 67 180 2.0 2.0 0.00 0.00 0.00 58 1006.7
20260505002459 67 180 1.0 2.0 0.00 0.00 0.00 58 1006.7
20260505002258 68 180 1.0 2.0 0.00 0.00 0.00 55 1006.6
20260505002159 68 180 2.0 2.0 0.00 0.00 0.00 55 1006.6
20260505002059 68 180 0.0 2.0 0.00 0.00 0.00 55 1006.6
20260505001959 68 180 0.0 2.0 0.00 0.00 0.00 55 1006.6
20260505001659 68 180 0.0 4.0 0.00 0.00 0.00 55 1006.6
20260505001559 69 180 0.0 4.0 0.00 0.00 0.00 54 1006.6
20260505001500 69 180 0.0 4.0 0.00 0.00 0.00 55 1006.6
20260505001359 69 180 0.0 4.0 0.00 0.00 0.00 53 1006.6
20260505001259 69 180 0.0 5.0 0.00 0.00 0.00 54 1006.6
20260505001157 69 180 0.0 5.0 0.00 0.00 0.00 54 1006.5
20260505001058 69 180 0.0 5.0 0.00 0.00 0.00 55 1006.5
20260505001001 69 180 0.0 5.0 0.00 0.00 0.00 53 1006.6
20260505000858 69 190 1.0 5.0 0.00 0.00 0.00 54 1006.4
20260505000758 69 190 1.0 5.0 0.00 0.00 0.00 54 1006.5
20260505000658 69 164 2.0 5.0 0.00 0.00 0.00 54 1006.5
20260505000558 69 236 1.0 5.0 0.00 0.00 0.00 54 1006.4
20260505000459 69 236 0.0 5.0 0.00 0.00 0.00 53 1006.5
20260505000359 69 236 1.0 5.0 0.00 0.00 0.00 52 1006.4
20260505000258 69 236 3.0 5.0 0.00 0.00 0.00 52 1006.4
20260505000058 69 88 1.0 3.0 0.00 0.00 0.00 53 1006.5
20260505000000 70 88 2.0 3.0 0.00 0.00 0.00 53 1006.5
20260504235900 70 88 1.0 5.0 0.00 0.00 0.00 53 1006.4
20260504235659 70 88 0.0 5.0 0.00 0.00 0.00 53 1006.4
20260504235559 70 88 3.0 5.0 0.00 0.00 0.00 52 1006.4
20260504235502 70 160 2.0 5.0 0.00 0.00 0.00 52 1006.4
20260504235400 70 163 0.0 5.0 0.00 0.00 0.00 53 1006.4
20260504235301 70 163 1.0 5.0 0.00 0.00 0.00 53 1006.4
20260504235159 70 163 1.0 5.0 0.00 0.00 0.00 52 1006.4
20260504235059 70 163 4.0 5.0 0.00 0.00 0.00 52 1006.4
20260504235001 70 163 2.0 5.0 0.00 0.00 0.00 52 1006.3
20260504234859 70 94 4.0 6.0 0.00 0.00 0.00 52 1006.5
20260504234759 70 36 3.0 3.0 0.00 0.00 0.00 53 1006.4
20260504234659 70 36 1.0 4.0 0.00 0.00 0.00 53 1006.4
20260504234559 70 36 0.0 4.0 0.00 0.00 0.00 52 1006.4
20260504234359 70 169 1.0 4.0 0.00 0.00 0.00 52 1006.4
20260504234159 70 289 1.0 6.0 0.00 0.00 0.00 52 1006.4
20260504234059 70 295 2.0 6.0 0.00 0.00 0.00 51 1006.3
20260504233959 70 243 1.0 6.0 0.00 0.00 0.00 52 1006.3
20260504233900 70 245 1.0 6.0 0.00 0.00 0.00 52 1006.3
20260504233800 70 209 2.0 8.0 0.00 0.00 0.00 52 1006.3
20260504233659 71 209 2.0 8.0 0.00 0.00 0.00 52 1006.2
20260504233600 71 204 2.0 8.0 0.00 0.00 0.00 52 1006.3
20260504233500 71 204 1.0 8.0 0.00 0.00 0.00 51 1006.3
20260504233401 71 204 1.0 8.0 0.00 0.00 0.00 52 1006.3
20260504233259 71 204 2.0 8.0 0.00 0.00 0.00 51 1006.3
20260504233058 71 164 0.0 8.0 0.00 0.00 0.00 51 1006.2
20260504232900 71 161 7.0 7.0 0.00 0.00 0.00 53 1006.2
20260504232800 71 161 1.0 7.0 0.00 0.00 0.00 51 1006.2
20260504232700 71 161 4.0 7.0 0.00 0.00 0.00 51 1006.3
20260504232558 71 190 3.0 6.0 0.00 0.00 0.00 52 1006.3
20260504232500 71 231 1.0 6.0 0.00 0.00 0.00 52 1006.3
20260504232359 71 231 1.0 6.0 0.00 0.00 0.00 51 1006.2
20260504232259 71 319 3.0 6.0 0.00 0.00 0.00 51 1006.2
20260504232158 71 196 2.0 8.0 0.00 0.00 0.00 52 1006.3
20260504232005 71 88 4.0 8.0 0.00 0.00 0.00 51 1006.2
20260504231900 71 69 2.0 8.0 0.00 0.00 0.00 52 1006.3
20260504231759 71 313 0.0 8.0 0.00 0.00 0.00 51 1006.2
20260504231700 71 335 4.0 8.0 0.00 0.00 0.00 50 1006.2
20260504231559 71 202 1.0 8.0 0.00 0.00 0.00 50 1006.3
20260504231500 71 178 6.0 8.0 0.00 0.00 0.00 51 1006.3
20260504231359 71 251 2.0 8.0 0.00 0.00 0.00 50 1006.3
20260504231259 71 285 3.0 6.0 0.00 0.00 0.00 50 1006.3
20260504231200 71 205 4.0 6.0 0.00 0.00 0.00 51 1006.3
20260504231100 71 116 1.0 6.0 0.00 0.00 0.00 51 1006.2
20260504231000 71 58 2.0 6.0 0.00 0.00 0.00 51 1006.3
20260504230758 71 232 2.0 6.0 0.00 0.00 0.00 51 1006.3
20260504230659 71 238 3.0 7.0 0.00 0.00 0.00 51 1006.3
20260504230600 71 254 0.0 7.0 0.00 0.00 0.00 52 1006.2
20260504230501 71 254 3.0 7.0 0.00 0.00 0.00 50 1006.2
20260504230159 72 252 3.0 17.0 0.00 0.00 0.00 51 1006.2
20260504230058 72 237 2.0 17.0 0.00 0.00 0.00 51 1006.2
20260504230000 72 230 1.0 17.0 0.00 0.00 0.00 50 1006.2
20260504225857 72 229 3.0 17.0 0.00 0.00 0.00 51 1006.5
20260504225558 72 113 2.0 17.0 0.00 0.00 0.00 51 1006.3
20260504225459 72 137 5.0 17.0 0.00 0.00 0.00 51 1006.1
20260504225358 72 156 16.0 17.0 0.00 0.00 0.00 50 1006.2
20260504225158 72 253 3.0 8.0 0.00 0.00 0.00 52 1006.3
20260504225058 72 253 2.0 8.0 0.00 0.00 0.00 51 1006.3
20260504225001 72 78 2.0 8.0 0.00 0.00 0.00 50 1006.3
20260504224858 72 173 3.0 8.0 0.00 0.00 0.00 50 1006.3
20260504224757 72 169 4.0 7.0 0.00 0.00 0.00 51 1006.2
20260504224658 72 229 2.0 7.0 0.00 0.00 0.00 51 1006.2
20260504224558 72 199 7.0 7.0 0.00 0.00 0.00 52 1006.3
20260504224502 72 333 4.0 7.0 0.00 0.00 0.00 51 1006.3
20260504224400 72 34 4.0 7.0 0.00 0.00 0.00 51 1006.3
20260504224258 72 265 2.0 7.0 0.00 0.00 0.00 52 1006.2
20260504224058 72 342 2.0 9.0 0.00 0.00 0.00 51 1006.2
20260504224001 72 344 2.0 9.0 0.00 0.00 0.00 51 1006.3
20260504223857 72 342 3.0 9.0 0.00 0.00 0.00 51 1006.2
20260504223759 72 75 3.0 9.0 0.00 0.00 0.00 50 1006.2
20260504223558 72 221 3.0 9.0 0.00 0.00 0.00 50 1006.3
20260504223459 72 123 1.0 9.0 0.00 0.00 0.00 51 1006.3
20260504223258 72 137 1.0 9.0 0.00 0.00 0.00 50 1006.3
20260504223059 72 65 2.0 5.0 0.00 0.00 0.00 52 1006.3
20260504223001 72 66 3.0 7.0 0.00 0.00 0.00 51 1006.4
20260504222759 72 66 1.0 7.0 0.00 0.00 0.00 51 1006.4
20260504222658 72 66 1.0 7.0 0.00 0.00 0.00 51 1006.5
20260504222500 72 66 3.0 11.0 0.00 0.00 0.00 51 1006.4
20260504222258 72 105 1.0 11.0 0.00 0.00 0.00 51 1006.4
20260504222158 72 152 2.0 11.0 0.00 0.00 0.00 50 1006.4
20260504222058 72 198 3.0 11.0 0.00 0.00 0.00 50 1006.3
20260504221959 72 281 3.0 11.0 0.00 0.00 0.00 51 1006.4
20260504221858 72 213 1.0 11.0 0.00 0.00 0.00 52 1006.4
20260504221758 72 213 0.0 11.0 0.00 0.00 0.00 51 1006.3
20260504221658 72 144 2.0 11.0 0.00 0.00 0.00 50 1006.3
20260504221558 72 86 5.0 11.0 0.00 0.00 0.00 51 1006.3
20260504221459 72 190 2.0 11.0 0.00 0.00 0.00 51 1006.3
20260504221358 72 262 4.0 11.0 0.00 0.00 0.00 50 1006.4
20260504221258 72 165 1.0 11.0 0.00 0.00 0.00 49 1006.4
20260504221158 72 165 4.0 11.0 0.00 0.00 0.00 49 1006.4
20260504221058 72 134 3.0 11.0 0.00 0.00 0.00 49 1006.4
20260504220959 72 268 1.0 11.0 0.00 0.00 0.00 50 1006.4
20260504220857 72 217 7.0 12.0 0.00 0.00 0.00 49 1006.5
20260504220758 72 226 3.0 11.0 0.00 0.00 0.00 50 1006.4
20260504220659 72 148 2.0 11.0 0.00 0.00 0.00 50 1006.4
20260504220558 72 273 6.0 11.0 0.00 0.00 0.00 50 1006.5
20260504220500 72 143 2.0 11.0 0.00 0.00 0.00 50 1006.4
20260504220358 72 223 2.0 11.0 0.00 0.00 0.00 50 1006.6
20260504220300 72 198 1.0 10.0 0.00 0.00 0.00 51 1006.4
20260504220058 72 248 10.0 11.0 0.00 0.00 0.00 50 1006.4
20260504220000 72 217 0.0 10.0 0.00 0.00 0.00 50 1006.4
20260504215857 72 217 1.0 10.0 0.00 0.00 0.00 50 1006.4
20260504215759 72 209 1.0 10.0 0.00 0.00 0.00 50 1006.3
20260504215658 72 103 6.0 10.0 0.00 0.00 0.00 49 1006.4
20260504215559 72 161 7.0 10.0 0.00 0.00 0.00 49 1006.5
20260504215500 72 247 2.0 10.0 0.00 0.00 0.00 52 1006.4
20260504215358 72 144 9.0 9.0 0.00 0.00 0.00 51 1006.4
20260504215158 72 223 3.0 9.0 0.00 0.00 0.00 51 1006.5
20260504215057 72 148 2.0 9.0 0.00 0.00 0.00 49 1006.4
20260504215001 72 183 6.0 9.0 0.00 0.00 0.00 49 1006.4
20260504214758 72 238 0.0 9.0 0.00 0.00 0.00 50 1006.4
20260504214659 72 238 1.0 9.0 0.00 0.00 0.00 51 1006.4
20260504214558 72 238 4.0 9.0 0.00 0.00 0.00 49 1006.3
20260504214458 72 307 3.0 9.0 0.00 0.00 0.00 51 1006.4
20260504214158 72 237 1.0 11.0 0.00 0.00 0.00 50 1006.4
20260504214058 72 236 4.0 11.0 0.00 0.00 0.00 49 1006.4
20260504213959 72 263 2.0 11.0 0.00 0.00 0.00 51 1006.4
20260504213857 72 197 1.0 11.0 0.00 0.00 0.00 51 1006.4
20260504213758 72 196 1.0 11.0 0.00 0.00 0.00 49 1006.4
20260504213658 72 208 2.0 11.0 0.00 0.00 0.00 49 1006.3
20260504213458 72 210 2.0 11.0 0.00 0.00 0.00 49 1006.4
20260504213358 72 239 6.0 11.0 0.00 0.00 0.00 49 1006.5
20260504213258 73 137 9.0 11.0 0.00 0.00 0.00 50 1006.4
20260504213058 73 255 3.0 11.0 0.00 0.00 0.00 49 1006.4
20260504212857 73 195 2.0 11.0 0.00 0.00 0.00 49 1006.4
20260504212758 73 259 7.0 11.0 0.00 0.00 0.00 50 1006.4
20260504212558 73 202 2.0 11.0 0.00 0.00 0.00 50 1006.4
20260504212459 73 202 1.0 11.0 0.00 0.00 0.00 49 1006.4
20260504212258 73 244 3.0 11.0 0.00 0.00 0.00 50 1006.4
20260504212158 73 146 4.0 10.0 0.00 0.00 0.00 50 1006.4
20260504212057 73 169 7.0 8.0 0.00 0.00 0.00 50 1006.3
20260504212000 73 279 4.0 8.0 0.00 0.00 0.00 49 1006.4
20260504211857 73 128 5.0 8.0 0.00 0.00 0.00 51 1006.4
20260504211758 73 157 3.0 8.0 0.00 0.00 0.00 49 1006.3
20260504211657 73 173 5.0 8.0 0.00 0.00 0.00 51 1006.3
20260504211557 73 180 2.0 8.0 0.00 0.00 0.00 51 1006.3
20260504211458 73 159 1.0 5.0 0.00 0.00 0.00 49 1006.3
20260504211357 73 142 4.0 5.0 0.00 0.00 0.00 49 1006.3
20260504211258 73 189 4.0 6.0 0.00 0.00 0.00 51 1006.3
20260504211158 73 355 4.0 4.0 0.00 0.00 0.00 52 1006.3
20260504211058 73 232 3.0 5.0 0.00 0.00 0.00 51 1006.3
20260504210959 73 229 1.0 5.0 0.00 0.00 0.00 49 1006.3
20260504210859 73 229 2.0 5.0 0.00 0.00 0.00 48 1006.3
20260504210758 73 138 1.0 5.0 0.00 0.00 0.00 51 1006.3
20260504210700 73 138 2.0 5.0 0.00 0.00 0.00 49 1006.3
20260504210557 73 142 1.0 5.0 0.00 0.00 0.00 49 1006.3
20260504210500 73 22 2.0 5.0 0.00 0.00 0.00 50 1006.3
20260504210257 73 55 1.0 11.0 0.00 0.00 0.00 49 1006.3
20260504210157 73 55 2.0 11.0 0.00 0.00 0.00 49 1006.4
20260504210058 73 347 3.0 11.0 0.00 0.00 0.00 50 1006.4
20260504210004 73 5 0.0 11.0 0.00 0.00 0.00 49 1006.3
20260504205759 73 332 2.0 11.0 0.00 0.00 0.00 49 1006.3
20260504205700 73 185 3.0 11.0 0.00 0.00 0.00 47 1006.3
20260504205600 73 151 3.0 11.0 0.00 0.00 0.00 48 1006.2
20260504205504 73 200 3.0 11.0 0.00 0.00 0.00 49 1006.2
20260504205359 73 140 8.0 11.0 0.00 0.00 0.00 49 1006.4
20260504205259 73 293 2.0 7.0 0.00 0.00 0.00 49 1006.4
20260504205159 73 265 2.0 7.0 0.00 0.00 0.00 48 1006.4
20260504205059 73 219 1.0 7.0 0.00 0.00 0.00 49 1006.3
20260504205000 73 203 2.0 7.0 0.00 0.00 0.00 50 1006.3
20260504204900 73 142 1.0 7.0 0.00 0.00 0.00 50 1006.3
20260504204759 73 259 2.0 7.0 0.00 0.00 0.00 51 1006.3
20260504204700 73 257 1.0 10.0 0.00 0.00 0.00 50 1006.4
20260504204559 73 273 4.0 12.0 0.00 0.00 0.00 48 1006.4
20260504204501 73 252 4.0 12.0 0.00 0.00 0.00 48 1006.4
20260504204300 73 296 2.0 12.0 0.00 0.00 0.00 49 1006.5
20260504204058 73 235 4.0 12.0 0.00 0.00 0.00 49 1006.5
20260504204005 73 205 4.0 12.0 0.00 0.00 0.00 47 1006.5
20260504203859 73 221 0.0 12.0 0.00 0.00 0.00 48 1006.5
20260504203758 73 193 3.0 12.0 0.00 0.00 0.00 50 1006.4
20260504203559 73 223 5.0 9.0 0.00 0.00 0.00 51 1006.4
20260504203504 73 331 2.0 9.0 0.00 0.00 0.00 49 1006.4
20260504203401 73 190 2.0 9.0 0.00 0.00 0.00 48 1006.5
20260504203300 73 211 2.0 9.0 0.00 0.00 0.00 48 1006.4
20260504203200 73 211 0.0 9.0 0.00 0.00 0.00 49 1006.4
20260504203004 73 186 3.0 9.0 0.00 0.00 0.00 49 1006.7
20260504202859 73 239 5.0 12.0 0.00 0.00 0.00 49 1006.6
20260504202759 73 199 5.0 12.0 0.00 0.00 0.00 49 1006.6
20260504202700 73 198 2.0 12.0 0.00 0.00 0.00 51 1006.6
20260504202502 72 201 1.0 12.0 0.00 0.00 0.00 50 1006.7
20260504202400 72 213 3.0 12.0 0.00 0.00 0.00 48 1006.7
20260504202300 72 173 3.0 12.0 0.00 0.00 0.00 48 1006.7
20260504202159 72 190 3.0 12.0 0.00 0.00 0.00 48 1006.7
20260504202059 72 148 8.0 12.0 0.00 0.00 0.00 49 1006.7
20260504202005 72 200 2.0 12.0 0.00 0.00 0.00 49 1006.7
20260504201859 72 105 4.0 9.0 0.00 0.00 0.00 49 1006.7
20260504201759 72 145 2.0 9.0 0.00 0.00 0.00 48 1006.7
20260504201659 72 146 3.0 9.0 0.00 0.00 0.00 48 1006.7
20260504201600 72 105 9.0 9.0 0.00 0.00 0.00 48 1006.9
20260504201503 72 278 3.0 9.0 0.00 0.00 0.00 47 1006.8
20260504201259 73 149 8.0 10.0 0.00 0.00 0.00 49 1006.8
20260504201159 73 243 4.0 10.0 0.00 0.00 0.00 48 1006.9
20260504201059 73 157 2.0 10.0 0.00 0.00 0.00 50 1006.9
20260504201005 73 157 1.0 10.0 0.00 0.00 0.00 49 1006.9
20260504200859 73 142 4.0 10.0 0.00 0.00 0.00 48 1006.9
20260504200800 73 184 4.0 10.0 0.00 0.00 0.00 49 1006.8
20260504200701 73 142 5.0 10.0 0.00 0.00 0.00 48 1006.8
20260504200559 73 144 6.0 10.0 0.00 0.00 0.00 48 1006.8
20260504200504 73 151 1.0 10.0 0.00 0.00 0.00 49 1006.9
20260504200401 72 153 3.0 9.0 0.00 0.00 0.00 50 1006.9
20260504200300 72 98 0.0 11.0 0.00 0.00 0.00 50 1006.9
20260504200159 72 98 1.0 11.0 0.00 0.00 0.00 50 1006.9
20260504200059 72 98 1.0 11.0 0.00 0.00 0.00 48 1006.9
20260504200000 72 203 4.0 11.0 0.00 0.00 0.00 49 1007.0
20260504195858 72 200 3.0 11.0 0.00 0.00 0.00 50 1007.0
20260504195758 72 199 1.0 11.0 0.00 0.00 0.00 53 1007.0
20260504195659 72 200 1.0 11.0 0.00 0.00 0.00 48 1007.0
20260504195558 72 155 4.0 11.0 0.00 0.00 0.00 49 1007.0
20260504195501 72 288 7.0 11.0 0.00 0.00 0.00 49 1007.0
20260504195359 72 264 3.0 11.0 0.00 0.00 0.00 51 1007.0
20260504195300 72 183 7.0 11.0 0.00 0.00 0.00 48 1007.1
20260504195159 72 187 8.0 9.0 0.00 0.00 0.00 48 1007.2
20260504195100 72 195 5.0 9.0 0.00 0.00 0.00 48 1007.2
20260504194959 72 257 5.0 9.0 0.00 0.00 0.00 49 1007.2
20260504194858 72 144 9.0 9.0 0.00 0.00 0.00 49 1007.3
20260504194759 72 202 3.0 7.0 0.00 0.00 0.00 49 1007.2
20260504194659 72 298 4.0 9.0 0.00 0.00 0.00 49 1007.2
20260504194559 72 296 5.0 9.0 0.00 0.00 0.00 52 1007.3
20260504194500 72 281 3.0 9.0 0.00 0.00 0.00 49 1007.2
20260504194400 72 133 4.0 9.0 0.00 0.00 0.00 49 1007.3
20260504194259 72 176 4.0 9.0 0.00 0.00 0.00 49 1007.3
20260504194158 71 113 2.0 9.0 0.00 0.00 0.00 49 1007.3
20260504194059 71 201 2.0 9.0 0.00 0.00 0.00 50 1007.3
20260504193859 71 159 5.0 9.0 0.00 0.00 0.00 51 1007.3
20260504193658 71 170 6.0 10.0 0.00 0.00 0.00 50 1007.4
20260504193559 71 261 2.0 10.0 0.00 0.00 0.00 51 1007.5
20260504193500 71 267 2.0 10.0 0.00 0.00 0.00 52 1007.5
20260504193358 71 262 2.0 10.0 0.00 0.00 0.00 50 1007.5
20260504193257 71 195 3.0 10.0 0.00 0.00 0.00 51 1007.5
20260504193159 71 195 2.0 10.0 0.00 0.00 0.00 49 1007.5
20260504193058 71 309 1.0 10.0 0.00 0.00 0.00 50 1007.5
20260504192959 71 139 1.0 10.0 0.00 0.00 0.00 51 1007.5
20260504192857 71 296 4.0 10.0 0.00 0.00 0.00 49 1007.5
20260504192758 71 183 8.0 10.0 0.00 0.00 0.00 50 1007.5
20260504192658 71 183 2.0 8.0 0.00 0.00 0.00 51 1007.4
20260504192502 71 183 2.0 8.0 0.00 0.00 0.00 49 1007.5
20260504192300 71 187 3.0 8.0 0.00 0.00 0.00 50 1007.6
20260504192158 71 228 1.0 8.0 0.00 0.00 0.00 51 1007.6
20260504192058 71 113 2.0 8.0 0.00 0.00 0.00 50 1007.6
20260504191859 71 301 3.0 8.0 0.00 0.00 0.00 49 1007.6
20260504191759 71 182 5.0 8.0 0.00 0.00 0.00 49 1007.6
20260504191700 71 175 3.0 8.0 0.00 0.00 0.00 51 1007.7
20260504191558 71 234 1.0 7.0 0.00 0.00 0.00 50 1007.8
20260504191459 71 227 2.0 7.0 0.00 0.00 0.00 53 1007.8
20260504191357 71 265 1.0 7.0 0.00 0.00 0.00 49 1007.8
20260504191259 71 265 2.0 7.0 0.00 0.00 0.00 51 1007.8
20260504191158 71 265 1.0 7.0 0.00 0.00 0.00 50 1007.8
20260504190858 71 234 2.0 7.0 0.00 0.00 0.00 50 1007.8
20260504190758 71 150 3.0 7.0 0.00 0.00 0.00 52 1007.8
20260504190558 71 226 2.0 7.0 0.00 0.00 0.00 51 1007.8
20260504190459 71 145 0.0 7.0 0.00 0.00 0.00 51 1007.8
20260504190258 71 207 3.0 8.0 0.00 0.00 0.00 50 1007.8
20260504190159 71 141 3.0 8.0 0.00 0.00 0.00 50 1007.8
20260504190058 71 155 3.0 9.0 0.00 0.00 0.00 54 1007.9
20260504185959 71 221 3.0 9.0 0.00 0.00 0.00 52 1007.9
20260504185759 71 202 1.0 9.0 0.00 0.00 0.00 54 1007.9
20260504185700 71 202 0.0 9.0 0.00 0.00 0.00 50 1008.0
20260504185600 71 202 3.0 9.0 0.00 0.00 0.00 49 1008.1
20260504185458 71 194 3.0 9.0 0.00 0.00 0.00 49 1008.1
20260504185358 71 229 2.0 9.0 0.00 0.00 0.00 49 1008.1
20260504185258 71 267 4.0 9.0 0.00 0.00 0.00 50 1008.2
20260504185158 71 262 7.0 9.0 0.00 0.00 0.00 51 1008.1
20260504185057 71 172 2.0 8.0 0.00 0.00 0.00 50 1008.1
20260504185000 71 175 2.0 8.0 0.00 0.00 0.00 50 1008.1
20260504184900 71 193 2.0 8.0 0.00 0.00 0.00 50 1008.1
20260504184757 72 192 2.0 8.0 0.00 0.00 0.00 49 1008.2
20260504184658 72 173 3.0 8.0 0.00 0.00 0.00 48 1008.2
20260504184357 72 213 2.0 8.0 0.00 0.00 0.00 48 1008.3
20260504184258 72 211 3.0 8.0 0.00 0.00 0.00 48 1008.3
20260504184159 72 126 5.0 8.0 0.00 0.00 0.00 51 1008.2
20260504184058 72 123 1.0 8.0 0.00 0.00 0.00 49 1008.2
20260504183859 72 198 7.0 8.0 0.00 0.00 0.00 49 1008.3
20260504183759 72 223 2.0 6.0 0.00 0.00 0.00 53 1008.3
20260504183559 71 205 2.0 6.0 0.00 0.00 0.00 51 1008.3
20260504183459 71 192 3.0 6.0 0.00 0.00 0.00 50 1008.3
20260504183359 71 212 2.0 7.0 0.00 0.00 0.00 51 1008.3
20260504183259 71 239 2.0 7.0 0.00 0.00 0.00 51 1008.4
20260504183158 71 200 4.0 7.0 0.00 0.00 0.00 48 1008.4
20260504183057 71 189 2.0 7.0 0.00 0.00 0.00 49 1008.4
20260504183000 71 188 4.0 7.0 0.00 0.00 0.00 49 1008.4
20260504182758 71 57 2.0 9.0 0.00 0.00 0.00 48 1008.4
20260504182658 71 232 2.0 9.0 0.00 0.00 0.00 49 1008.4
20260504182558 71 232 4.0 9.0 0.00 0.00 0.00 50 1008.4
20260504182505 71 181 4.0 9.0 0.00 0.00 0.00 50 1008.5
20260504182258 71 150 5.0 9.0 0.00 0.00 0.00 51 1008.6
20260504182158 71 259 1.0 9.0 0.00 0.00 0.00 52 1008.6
20260504181759 71 302 2.0 6.0 0.00 0.00 0.00 50 1008.6
20260504181659 71 161 2.0 6.0 0.00 0.00 0.00 50 1008.7
20260504181559 71 137 5.0 6.0 0.00 0.00 0.00 51 1008.7
20260504181358 70 58 1.0 6.0 0.00 0.00 0.00 52 1008.7
20260504181258 70 58 1.0 5.0 0.00 0.00 0.00 51 1008.7
20260504181159 70 300 2.0 5.0 0.00 0.00 0.00 51 1008.8
20260504181058 70 312 2.0 5.0 0.00 0.00 0.00 50 1008.8
20260504181000 71 312 1.0 7.0 0.00 0.00 0.00 50 1008.7
20260504180858 71 312 1.0 7.0 0.00 0.00 0.00 48 1008.6
20260504180759 71 315 3.0 7.0 0.00 0.00 0.00 49 1008.8
20260504180658 71 265 2.0 7.0 0.00 0.00 0.00 49 1008.9
20260504180558 71 300 4.0 7.0 0.00 0.00 0.00 50 1008.8
20260504180500 71 242 1.0 7.0 0.00 0.00 0.00 51 1008.8
20260504180358 71 178 2.0 7.0 0.00 0.00 0.00 51 1008.8
20260504180259 71 178 1.0 8.0 0.00 0.00 0.00 51 1008.9
20260504180005 70 132 5.0 8.0 0.00 0.00 0.00 49 1009.0
20260504175859 70 172 1.0 8.0 0.00 0.00 0.00 51 1009.0
20260504175759 70 161 4.0 8.0 0.00 0.00 0.00 55 1008.9
20260504175658 70 136 1.0 8.0 0.00 0.00 0.00 52 1009.0
20260504175459 70 150 3.0 11.0 0.00 0.00 0.00 48 1009.0
20260504175359 70 182 8.0 11.0 0.00 0.00 0.00 50 1009.1
20260504175159 70 190 0.0 11.0 0.00 0.00 0.00 52 1009.1
20260504175058 70 143 2.0 11.0 0.00 0.00 0.00 48 1009.2
20260504174858 70 188 4.0 11.0 0.00 0.00 0.00 51 1009.2
20260504174759 70 341 4.0 11.0 0.00 0.00 0.00 49 1009.1
20260504174658 70 164 4.0 11.0 0.00 0.00 0.00 48 1009.2
20260504174558 70 149 9.0 11.0 0.00 0.00 0.00 50 1009.2
20260504174500 70 155 2.0 11.0 0.00 0.00 0.00 49 1009.2
20260504174359 70 178 1.0 11.0 0.00 0.00 0.00 50 1009.2
20260504174257 70 195 2.0 11.0 0.00 0.00 0.00 48 1009.3
20260504174058 70 220 4.0 11.0 0.00 0.00 0.00 49 1009.3
20260504174000 70 115 9.0 9.0 0.00 0.00 0.00 51 1009.3
20260504173858 70 285 0.0 7.0 0.00 0.00 0.00 50 1009.3
20260504173758 70 298 3.0 7.0 0.00 0.00 0.00 49 1009.4
20260504173657 70 155 3.0 6.0 0.00 0.00 0.00 49 1009.3
20260504173600 70 256 2.0 6.0 0.00 0.00 0.00 51 1009.4
20260504173500 70 289 3.0 7.0 0.00 0.00 0.00 51 1009.4
20260504173258 70 193 3.0 10.0 0.00 0.00 0.00 54 1009.3